Location: Jonesport
(44.5330°N, 67.5990°W)
Time: 10:29:08
(UTC-04:00)

Iridium 35 - Visible Passes

Search period start: 25 April 2015 00:00
Search period end: 05 May 2015 00:00
Orbit: 776 x 779 km, 86.4° (Epoch: 24 April)

Date Brightness Start Highest point End Pass type
(mag) Time Alt. Az. Time Alt. Az. Time Alt. Az.
25 Apr 7.2 04:40:07 10° SE 04:44:34 30° E 04:49:07 10° NNE visible
26 Apr 7.9 04:08:02 10° ESE 04:11:16 17° E 04:14:42 10° NE visible
28 Apr 6.4 04:39:40 10° SSE 04:44:32 42° E 04:49:28 10° NNE visible
29 Apr 7.4 04:07:07 10° SE 04:11:11 24° E 04:15:23 10° NNE visible
30 Apr 7.9 03:35:30 10° ESE 03:37:56 14° ENE 03:40:38 10° NE visible
01 May 5.7 04:39:26 10° SSE 04:44:32 61° E 04:49:42 10° N visible
02 May 6.8 04:06:31 10° SSE 04:11:08 34° E 04:15:50 10° NNE visible
03 May 7.6 03:34:15 10° ESE 03:37:49 20° E 03:41:33 10° NE visible
04 May 8.1 03:03:34 10° E 03:04:36 11° ENE 03:05:57 10° ENE visible
04 May 5.1 04:39:23 10° S 04:44:35 86° E 04:49:50 10° N visible
